Погода в Люнгби

Швеция     56°49′59″N   13°56′20″E
темп.,
°C
ветер,
м/с
пор.,
м/с
влажн.,
%
обл.,
%
осадки,
мм/ч
давл.,
гПа
погр.,
м
1 марта, пн
пн101:00+1зюз229540 0.0 103228
04:00+1зюз25960 0.0 1031137
07:000зюз39950 0.0 1031247
10:00+5з48822 0.0 1031351
13:00+9з510631 0.0 1030507
16:00+8з510700 0.0 1030549
19:00+4з414820 0.0 1030484
22:00+3з411940 0.0 1030417
2 марта, вт
вт201:00+3з413941 0.0 1030372
04:00+2зсз310950 0.0 1029351
07:00+1зсз27973 0.0 1030206
10:00+5сз25792 0.0 1031262
13:00+10ссз11581 0.0 1032404
16:00+10ююз01630 0.0 103285
19:00+4зюз22920 0.0 103239
22:00+2юз229474 0.0 103244
3 марта, ср
ср301:00+1ююз229538 0.0 103138
04:000юз25964 0.0 1029127
07:000зюз289619 0.0 1028231
10:00+5зюз36710 0.0 1026365
13:00+8зюз48550 0.0 1023504
16:00+7зюз48600 0.0 1020471
19:00+2зюз388221 0.0 1018274
22:00+1зюз299164 0.0 1015265
4 марта, чт
чт401:000з289771 0.0 1013275
04:00+2с3692100 0.1 1013437
07:00+1св5996100 0.2 1014646
10:00+1св4750100 0.1 1015736
13:00+3с3639100 0.1 10161100
16:00+2с46410 0.0 10151416
19:00−2с27580 0.0 1016199
22:00−2ссз28620 0.0 1017276
5 марта, пт
пт501:00−2ссз37630 0.0 1017277
04:00−2ссз27640 0.0 1018311
07:00−2ссз38640 0.0 1019453
10:00+1ссз34490 0.0 1020719
13:00+3ссз36320 0.0 10212158
16:00+1с474195 0.1 10221871
19:00−2с275564 0.1 1024216
22:00−3ссз12580 0.0 102631